Regional Weather Roundup
Issued by NWS Cleveland, OH

Home | Current Version | Previous Version | Graphics & Text | Print | Product List | Glossary On
Versions: 1 2 3 4 5 6 7 8 9 10 11 12 13 14 15 16 17 18 19 20 21 22 23 24 25 26 27 28 29 30 31 32 33 34 35 36 37 38 39 40 41 42 43 44 45 46 47 48 49 50
000
ASUS41 KCLE 240112
RWRCLE
OHIO REGIONAL WEATHER ROUNDUP
NATIONAL WEATHER SERVICE WILMINGTON, OH
800 PM EST FRI FEB 23 2018

NOTE: "FAIR" INDICATES FEW OR NO CLOUDS BELOW 12,000 FEET WITH NO
SIGNIFICANT WEATHER AND/OR OBSTRUCTIONS TO VISIBILITY.

OHZ001>008-015>018-024>027-034-035-043-044-240200-
   NORTHWEST OHIO

CITY           SKY/WX    TMP DP  RH WIND       PRES   REMARKS
DEFIANCE       CLOUDY    46  42  86 W7        30.21S
FINDLAY        CLOUDY    50  44  80 W14       30.21R
TOLEDO EXPRESS CLOUDY    47  45  93 W12       30.20R
TOLEDO EXEC    CLOUDY    48  44  86 W13       30.21R
LIMA           CLOUDY    49  47  93 W9        30.22R
$$

OHZ009>014-019>023-028>033-038-089-240200-
   NORTHEAST OHIO

CITY           SKY/WX    TMP DP  RH WIND       PRES   REMARKS
CLE-HOPKINS    CLOUDY    52  48  86 W8        30.21R
CLE-LAKEFRONT  MOCLDY    43  41  93 SW7       30.19R
CUY CO. ARPT   CLOUDY    48  46  93 W12       30.19R
LORAIN-ELYRIA  CLOUDY    52  44  74 NW16      30.19R
ASHTABULA      CLOUDY    48  46  93 W8        30.19R
AKRON-CANTON   CLOUDY    59  52  77 W13       30.17S
WOOSTER        MOCLDY    55  51  86 W10       30.18S
MANSFIELD      CLOUDY    54  51  90 W7        30.19R
YOUNGSTOWN     CLOUDY    59  53  80 W9        30.15S
$$

OHZ042-051>053-060>062-070>072-077>081-240200-
  SOUTHWEST OHIO

CITY           SKY/WX    TMP DP  RH WIND       PRES   REMARKS
CINC-COVINGTON CLOUDY    56  54  93 SW5       30.21F
CINC-LUNKEN    CLOUDY    58  55  90 VRB7      30.23S
HAMILTON       FAIR      55  54  96 CALM      30.23R
DAYTON         CLOUDY    54  51  90 W12       30.22S
WRIGHT-PAT AFB CLOUDY    56  53  91 W3        30.21S
DAYTON GENERAL FAIR      57  53  86 W6        30.21S
WILMINGTON     FAIR      57  56  96 W10       30.21S
$$

OHZ036-037-039>041-045>050-054>059-063>069-073>076-082>088-240200-
  CENTRAL AND SOUTHEAST OHIO

CITY           SKY/WX    TMP DP  RH WIND       PRES   REMARKS
COLUMBUS       CLOUDY    59  55  87 W8        30.20S
OSU AIRPORT    FAIR      57  55  93 W6        30.20S
BOLTON FIELD   NOT AVBL
RICKENBACK AFB FAIR      58  56  96 SW5       30.20S
NEWARK         FAIR      59  55  87 W9        30.19S
MARION         MOCLDY    53  49  86 NW9       30.21R
LANCASTER      FAIR      60  55  83 W7        30.20F
ZANESVILLE     FAIR      62  56  80 W6        30.19S
NEW PHILLY     CLOUDY    61  56  83 VRB7      30.19S
$$




USA.gov is the U.S. government's official web portal to all federal, state and local government web resources and services.